Overview Statistics Trail Chart Weather Telemetry Raw packets
 

This is the latest recevied weather packets stored in our database for station/object EDDH. If no packets are shown the sender has not sent any weather packets the latest 10 day(s).

<< 6 7 8 9 >>
Time Temp. Humidity Pressure Rain* Wind** Luminosity Snow
1787807401 15.56° C 80% 1018 hPa 0 mm - - -
1787803801 15.56° C 80% 1018 hPa 0 mm - - -
1787800201 16.67° C 80% 1019 hPa 0 mm - - -
1787796602 16.67° C 80% 1019 hPa 0 mm - - -
1787793002 16.67° C 80% 1019 hPa 0 mm - - -
1787789402 16.67° C 80% 1019 hPa 0 mm - - -
1787785803 16.67° C 80% 1020 hPa 0 mm - - -
1787782202 18.89° C 65% 1020 hPa 0 mm - - -
1787778602 18.89° C 65% 1020 hPa 0 mm - - -
1787775003 20° C 55% 1019 hPa 0 mm - - -
1787771401 20.56° C 45% 1019 hPa 0 mm - - -
1787764202 25° C 20% 1018 hPa 0 mm - - -
1787760601 25° C 25% 1018 hPa 0 mm - - -
1787757002 25.56° C 20% 1019 hPa 0 mm - - -
1787753401 25.56° C 20% 1019 hPa 0 mm - - -
1787749802 25.56° C 20% 1019 hPa 0 mm - - -
1787746201 25° C 25% 1020 hPa 0 mm - - -
1787742603 23.89° C 30% 1020 hPa 0 mm - - -
1787739002 22.78° C 40% 1020 hPa 0 mm - - -
1787735401 21.67° C 50% 1021 hPa 0 mm - - -
1787731802 20° C 65% 1020 hPa 0 mm - - -
1787728202 17.78° C 70% 1020 hPa 0 mm - - -
1787724602 15° C 85% 1020 hPa 0 mm - - -
1787721002 11.67° C 95% 1020 hPa 0 mm - - -
1787717402 11.67° C 95% 1020 hPa 0 mm - - -

* Rain latest 24 hours (hover to see other rain measurements)
** Current wind speed in m/s (hover to see current wind gust speed)